When you browse on this site, cookies collect data to enhance your experience and personalize the content and advertising you see.
Visit our Privacy Policy to learn more. By continuing to use the site, you agree to this use of cookies and data.
  • In Hungary
  • List of Countries
  • For 7 days
  • Water Temperature
  • Satellite Maps
  • Weather Map
  • News
  • Weather Widgets
  • user-avatar
    Login

    Hourly Weather Letunovka

    Today, 18 November, Sunday

    Time Temperature Precipitation Wind Pressure Humidity
    00:00 -2°C° 0 mm 3 mps 759 mmHg 28%
    01:00 -3°C° 0 mm 4 mps 758 mmHg 28%
    02:00 -3°C° 0 mm 4 mps 758 mmHg 28%
    03:00 -3°C° 0 mm 4 mps 757 mmHg 28%
    04:00 -3°C° 0 mm 4 mps 757 mmHg 29%
    05:00 -3°C° 0 mm 4 mps 756 mmHg 29%
    06:00 -3°C° 0 mm 4 mps 756 mmHg 29%
    07:00 -3°C° 0 mm 4 mps 755 mmHg 29%
    08:00 -3°C° 0 mm 4 mps 755 mmHg 29%
    09:00 -3°C° 0 mm 4 mps 755 mmHg 29%
    10:00 -2°C° 0 mm 4 mps 755 mmHg 30%
    11:00 0°C° 0 mm 3 mps 755 mmHg 30%
    12:00 0°C° 0 mm 3 mps 755 mmHg 31%
    13:00 0°C° 0 mm 3 mps 755 mmHg 33%
    14:00 0°C° 0 mm 3 mps 755 mmHg 36%
    15:00 +1°C° 0 mm 2 mps 755 mmHg 38%
    16:00 -1°C° 0 mm 2 mps 755 mmHg 40%
    17:00 -1°C° 0 mm 2 mps 755 mmHg 42%
    18:00 -2°C° 0 mm 2 mps 755 mmHg 45%
    19:00 -2°C° 0 mm 2 mps 755 mmHg 46%
    20:00 -2°C° 0 mm 2 mps 755 mmHg 47%
    21:00 0°C° 0 mm 1 mps 755 mmHg 48%
    22:00 -1°C° 0 mm 1 mps 756 mmHg 49%
    23:00 -1°C° 0 mm 1 mps 756 mmHg 50%

    Tomorrow, 19 November, Monday

    Time Temperature Precipitation Wind Pressure Humidity
    00:00 -1°C° 0 mm 1 mps 756 mmHg 51%
    01:00 -1°C° 0 mm 1 mps 756 mmHg 52%
    02:00 -1°C° 0 mm 1 mps 756 mmHg 53%
    03:00 -1°C° 0 mm 1 mps 757 mmHg 54%
    04:00 -1°C° 0 mm 1 mps 757 mmHg 55%
    05:00 -2°C° 0 mm 0 mps 757 mmHg 57%
    06:00 -2°C° 0 mm 0 mps 757 mmHg 58%
    07:00 -2°C° 0 mm 0 mps 757 mmHg 59%
    08:00 -2°C° 0 mm 0 mps 758 mmHg 59%
    09:00 -2°C° 0 mm 0 mps 758 mmHg 59%
    10:00 -1°C° 0 mm 0 mps 758 mmHg 58%
    11:00 0°C° 0 mm 0 mps 759 mmHg 57%
    12:00 0°C° 0 mm 0 mps 759 mmHg 55%
    13:00 +1°C° 0 mm 1 mps 759 mmHg 58%
    14:00 +1°C° 0 mm 1 mps 759 mmHg 60%
    15:00 +1°C° 0 mm 1 mps 759 mmHg 62%
    16:00 +1°C° 0 mm 1 mps 759 mmHg 67%
    17:00 -2°C° 0 mm 2 mps 759 mmHg 72%
    18:00 -2°C° 0 mm 2 mps 759 mmHg 77%
    19:00 -3°C° 0 mm 2 mps 759 mmHg 79%
    20:00 -3°C° 0 mm 2 mps 759 mmHg 82%
    21:00 -3°C° 0 mm 2 mps 760 mmHg 84%
    22:00 -3°C° 0 mm 2 mps 760 mmHg 86%
    23:00 -3°C° 0 mm 2 mps 760 mmHg 88%

    Day after tomorrow, 20 November, Tuesday

    Time Temperature Precipitation Wind Pressure Humidity
    00:00 -3°C° 0 mm 2 mps 760 mmHg 90%
    01:00 -3°C° 0 mm 2 mps 760 mmHg 92%
    02:00 -3°C° 0 mm 2 mps 760 mmHg 93%
    03:00 -3°C° 0 mm 2 mps 760 mmHg 94%
    04:00 -3°C° 0 mm 2 mps 759 mmHg 95%
    05:00 -3°C° 0 mm 2 mps 759 mmHg 96%
    06:00 -4°C° 0 mm 2 mps 759 mmHg 96%
    07:00 -3°C° 0 mm 2 mps 759 mmHg 96%
    08:00 -3°C° 0 mm 2 mps 759 mmHg 96%
    09:00 -3°C° 0 mm 2 mps 759 mmHg 95%
    10:00 -2°C° 0 mm 3 mps 759 mmHg 91%
    11:00 -1°C° 0 mm 3 mps 759 mmHg 87%
    12:00 -1°C° 0 mm 3 mps 759 mmHg 83%
    13:00 -1°C° 0 mm 3 mps 759 mmHg 82%
    14:00 -1°C° 0 mm 2 mps 758 mmHg 82%
    15:00 -1°C° 0 mm 2 mps 758 mmHg 81%
    16:00 -1°C° 0 mm 2 mps 758 mmHg 84%
    17:00 -2°C° 0 mm 2 mps 758 mmHg 86%
    18:00 -2°C° 0 mm 2 mps 758 mmHg 89%
    19:00 -2°C° 0 mm 2 mps 758 mmHg 90%
    20:00 -1°C° 0 mm 1 mps 757 mmHg 90%
    21:00 -1°C° 0 mm 1 mps 757 mmHg 91%
    22:00 -1°C° 0 mm 1 mps 757 mmHg 91%
    23:00 -1°C° 0 mm 1 mps 757 mmHg 91%

    21 November, Wednesday

    Time Temperature Precipitation Wind Pressure Humidity
    00:00 -1°C° 0 mm 1 mps 757 mmHg 91%
    01:00 -1°C° 0 mm 1 mps 757 mmHg 91%
    02:00 -2°C° 0 mm 1 mps 757 mmHg 90%
    03:00 -2°C° 0 mm 1 mps 757 mmHg 90%
    04:00 -1°C° 0 mm 1 mps 756 mmHg 88%
    05:00 -3°C° 0 mm 2 mps 756 mmHg 86%
    06:00 -3°C° 0 mm 2 mps 756 mmHg 85%
    07:00 -3°C° 0 mm 2 mps 756 mmHg 83%
    08:00 -3°C° 0 mm 2 mps 756 mmHg 81%
    09:00 -3°C° 0 mm 2 mps 755 mmHg 80%
    10:00 -2°C° 0 mm 3 mps 755 mmHg 76%
    11:00 -2°C° 0 mm 3 mps 755 mmHg 72%
    12:00 -3°C° 0 mm 4 mps 755 mmHg 68%
    13:00 -3°C° 0 mm 4 mps 755 mmHg 68%
    14:00 -3°C° 0 mm 4 mps 755 mmHg 67%
    15:00 -3°C° 0 mm 4 mps 755 mmHg 67%
    16:00 -3°C° 0 mm 4 mps 755 mmHg 69%
    17:00 -2°C° 0 mm 3 mps 755 mmHg 72%
    18:00 -4°C° 0 mm 3 mps 755 mmHg 74%
    19:00 -4°C° 0 mm 3 mps 755 mmHg 75%
    20:00 -2°C° 0 mm 3 mps 755 mmHg 76%
    21:00 -2°C° 0 mm 3 mps 755 mmHg 77%
    22:00 -2°C° 0 mm 3 mps 755 mmHg 76%
    23:00 -2°C° 0 mm 3 mps 755 mmHg 74%

    22 November, Thursday

    Time Temperature Precipitation Wind Pressure Humidity
    00:00 -2°C° 0 mm 3 mps 754 mmHg 73%
    01:00 -2°C° 0 mm 3 mps 754 mmHg 73%
    02:00 -2°C° 0 mm 3 mps 754 mmHg 72%
    03:00 -2°C° 0 mm 3 mps 754 mmHg 71%
    04:00 -4°C° 0 mm 3 mps 754 mmHg 71%
    05:00 -4°C° 0 mm 3 mps 754 mmHg 71%
    06:00 -4°C° 0 mm 3 mps 754 mmHg 71%
    07:00 -4°C° 0 mm 3 mps 754 mmHg 71%
    08:00 -5°C° 0 mm 3 mps 754 mmHg 72%
    09:00 -5°C° 0 mm 3 mps 753 mmHg 73%
    10:00 -4°C° 0 mm 4 mps 753 mmHg 69%
    11:00 -3°C° 0 mm 4 mps 753 mmHg 66%
    12:00 -4°C° 0 mm 5 mps 752 mmHg 63%
    13:00 -4°C° 0 mm 5 mps 752 mmHg 62%
    14:00 -4°C° 0 mm 6 mps 751 mmHg 62%
    15:00 -4°C° 0 mm 6 mps 751 mmHg 62%
    16:00 -4°C° 0 mm 6 mps 751 mmHg 65%
    17:00 -4°C° 0 mm 6 mps 751 mmHg 68%
    18:00 -5°C° 0 mm 6 mps 751 mmHg 71%
    19:00 -4°C° 0 mm 6 mps 751 mmHg 73%
    20:00 -4°C° 0 mm 6 mps 751 mmHg 75%
    21:00 -4°C° 0 mm 6 mps 751 mmHg 77%
    22:00 -4°C° 0 mm 6 mps 751 mmHg 78%
    23:00 -4°C° 0 mm 6 mps 751 mmHg 80%

    23 November, Friday

    Time Temperature Precipitation Wind Pressure Humidity
    00:00 -4°C° 0 mm 5 mps 752 mmHg 82%
    01:00 -4°C° 0 mm 5 mps 752 mmHg 83%
    02:00 -5°C° 0 mm 5 mps 752 mmHg 85%
    03:00 -5°C° 0 mm 5 mps 753 mmHg 86%
    04:00 -4°C° 0 mm 4 mps 753 mmHg 86%
    05:00 -4°C° 0 mm 4 mps 754 mmHg 86%
    06:00 -4°C° 0 mm 3 mps 754 mmHg 86%
    07:00 -4°C° 0 mm 3 mps 754 mmHg 87%
    08:00 -4°C° 0 mm 3 mps 755 mmHg 88%
    09:00 -5°C° 0 mm 3 mps 755 mmHg 89%
    10:00 -4°C° 0 mm 4 mps 755 mmHg 84%
    11:00 -3°C° 0 mm 4 mps 756 mmHg 80%
    12:00 -2°C° 0 mm 4 mps 756 mmHg 75%
    13:00 -2°C° 0 mm 4 mps 756 mmHg 75%
    14:00 -2°C° 0 mm 4 mps 756 mmHg 75%
    15:00 -2°C° 0 mm 4 mps 756 mmHg 75%
    16:00 -3°C° 0 mm 4 mps 756 mmHg 77%
    17:00 -3°C° 0 mm 4 mps 756 mmHg 78%
    18:00 -3°C° 0 mm 4 mps 756 mmHg 80%
    19:00 -3°C° 0 mm 4 mps 756 mmHg 79%
    20:00 -3°C° 0 mm 4 mps 756 mmHg 78%
    21:00 -3°C° 0 mm 4 mps 756 mmHg 77%
    22:00 -3°C° 0 mm 4 mps 756 mmHg 76%
    23:00 -3°C° 0 mm 4 mps 756 mmHg 76%
    Show more